Stations météo

Publicité
Noervenich/Flugplatz, Allemagne (10502): Température de l'air & dewpoint: 10.01.2018 20:00:00 - 16.01.2018 20:00:00 (CET)Noervenich/Flugplatz, Allemagne (10502): Température de l'air -5cm: 10.01.2018 20:00:00 - 16.01.2018 20:00:00 (CET)Noervenich/Flugplatz, Allemagne (10502): Température de l'air -20cm & Température de l'air -100cm: 10.01.2018 20:00:00 - 16.01.2018 20:00:00 (CET)Noervenich/Flugplatz, Allemagne (10502): Vitesse du vent & gusts: 10.01.2018 20:00:00 - 16.01.2018 20:00:00 (CET)Noervenich/Flugplatz, Allemagne (10502): Direction du vent: 10.01.2018 20:00:00 - 16.01.2018 20:00:00 (CET)Noervenich/Flugplatz, Allemagne (10502): reduced air pressure: 10.01.2018 20:00:00 - 16.01.2018 20:00:00 (CET)Noervenich/Flugplatz, Allemagne (10502): visibility: 10.01.2018 20:00:00 - 16.01.2018 20:00:00 (CET)
Date & Time tt [°C] td [°C] tt -5cm [°C] tt -20cm [°C] tt -100cm [°C] ff [km/h] ff [knt] fx [km/h] fx [knt] dd ppp [hPa] vv [km]
16.01.2018 20:00:00 3,5 0,5 - - - 29 16 50 27 WNW 996,2 20
16.01.2018 19:00:00 1,9 -0,2 - - - 11 6 - - NW 996,3 20
16.01.2018 18:00:00 3,9 0,9 - - - 8 4 - - W 996,2 10
16.01.2018 17:00:00 3,4 0,5 - - - 22 12 58 31 NW 996,3 20
16.01.2018 16:00:00 6,8 0,4 - - - 29 16 - - WNW 995,3 10
16.01.2018 15:00:00 4,7 0,6 6,2 5,0 - 22 12 50 27 NNW 995,5 8
16.01.2018 14:00:00 6,7 1,9 - - - 29 16 72 39 W 994,7 25
16.01.2018 13:00:00 6,8 0,8 - - - 41 22 - - W 994,7 10
16.01.2018 12:00:00 5,6 1,8 - - - 40 21 65 35 NW 994,3 5
16.01.2018 11:00:00 6,6 2,7 - - - 40 21 61 33 W 993,5 6
16.01.2018 10:00:00 6,3 3,6 - - - 32 18 - - W 993,0 20
16.01.2018 09:00:00 6,0 2,9 - - - 32 18 47 25 WSW 993,2 20
16.01.2018 08:00:00 6,4 3,4 4,2 4,6 7,5 32 18 50 27 WSW 992,9 20
16.01.2018 07:00:00 6,4 3,3 - - - 32 18 - - W 992,7 30
16.01.2018 06:00:00 5,1 3,1 - - - 18 10 65 35 W 993,6 30
16.01.2018 05:00:00 5,5 2,5 - - - 44 24 54 29 WNW 994,0 8
16.01.2018 04:00:00 6,0 2,9 - - - 18 10 - - WSW 994,5 30
16.01.2018 03:00:00 6,3 3,6 - - - 22 12 - - WSW 995,3 25
16.01.2018 02:00:00 6,3 4,4 - - - 25 14 50 27 WSW 995,6 20
16.01.2018 01:00:00 6,7 4,6 - - - 25 14 - - WSW 995,1 25
16.01.2018 00:00:00 7,8 4,9 - - - 36 19 50 27 WSW 994,1 25
15.01.2018 23:00:00 6,8 4,3 - - - 22 12 47 25 SW 994,2 25
15.01.2018 22:00:00 5,8 3,2 - - - 25 14 - - WSW 994,4 20
15.01.2018 21:00:00 6,3 1,8 - - - 32 18 50 27 SSW 994,6 20
15.01.2018 20:00:00 5,8 1,5 - - - 32 18 61 33 SSW 995,5 20
15.01.2018 19:00:00 6,1 2,3 - - - 25 14 - - SSW 996,9 20
15.01.2018 18:00:00 6,2 2,8 - - - 29 16 54 29 SW 998,4 10
15.01.2018 17:00:00 6,9 1,8 - - - 18 10 - - S 1000,3 20
15.01.2018 16:00:00 6,7 2,3 - - - 18 10 - - S 1002,3 20
15.01.2018 15:00:00 6,6 2,7 4,4 3,8 - 16 9 - - SSW 1004,5 10
15.01.2018 14:00:00 6,9 2,1 - - - 18 10 - - SSW 1005,8 20
15.01.2018 13:00:00 6,5 2,3 - - - 14 8 - - S 1008,3 20
15.01.2018 12:00:00 6,4 2,5 - - - 18 10 - - S 1010,0 20
15.01.2018 11:00:00 6,0 2,2 - - - 14 8 - - S 1011,4 20
15.01.2018 10:00:00 5,1 1,4 - - - 11 6 - - SSW 1012,4 20
15.01.2018 09:00:00 3,1 0,7 - - - 11 6 - - S 1013,1 20
15.01.2018 08:00:00 1,4 -0,5 0,4 3,2 7,7 7 4 - - SSE 1013,9 20
15.01.2018 07:00:00 1,5 -0,8 - - - 11 6 - - SE 1014,7 30
15.01.2018 06:00:00 1,2 -1,0 - - - 11 6 - - SE 1015,6 20
15.01.2018 05:00:00 2,5 -0,7 - - - 14 8 - - S 1016,4 20
15.01.2018 04:00:00 3,0 -0,4 - - - 11 6 - - S 1017,2 20
15.01.2018 03:00:00 1,8 -0,8 - - - 11 6 - - SSE 1018,0 20
15.01.2018 02:00:00 0,7 -1,5 - - - 11 6 - - SE 1018,5 20
15.01.2018 01:00:00 0,9 -1,3 - - - 11 6 - - SE 1019,2 15
15.01.2018 00:00:00 0,7 -1,4 - - - 11 6 - - SE 1019,8 15
14.01.2018 23:00:00 1,1 -1,1 - - - 11 6 - - ESE 1020,3 15
14.01.2018 22:00:00 1,1 -1,1 - - - 11 6 - - ESE 1020,4 15
14.01.2018 21:00:00 1,6 -0,7 - - - 11 6 - - SE 1020,6 15
14.01.2018 20:00:00 2,4 -0,3 - - - 11 6 - - SSE 1020,5 10
14.01.2018 19:00:00 2,9 -0,3 - - - 11 6 - - SSE 1020,7 15
14.01.2018 18:00:00 3,1 -0,3 - - - 11 6 - - SSE 1020,8 15
14.01.2018 17:00:00 3,4 -0,4 - - - 14 8 - - SSE 1020,8 15
14.01.2018 16:00:00 3,9 -0,4 - - - 11 6 - - S 1021,0 20
14.01.2018 15:00:00 4,1 -0,6 4,6 4,7 - 18 10 - - S 1020,9 18
14.01.2018 14:00:00 3,9 -0,4 - - - 18 10 - - SSE 1021,1 15
14.01.2018 13:00:00 3,7 -0,7 - - - 18 10 - - SSE 1021,3 24
14.01.2018 12:00:00 3,6 -0,5 - - - 18 10 - - SSE 1021,4 26
14.01.2018 11:00:00 3,3 -0,6 - - - 18 10 - - SSE 1021,7 24
14.01.2018 10:00:00 3,0 -0,7 - - - 18 10 - - SSE 1021,6 24
14.01.2018 09:00:00 3,1 -0,7 - - - 18 10 - - SSE 1021,3 24
14.01.2018 08:00:00 3,4 -0,4 2,9 4,6 7,8 14 8 - - SE 1021,1 25
14.01.2018 07:00:00 3,6 -0,3 - - - 14 8 - - SSE 1021,2 25
14.01.2018 06:00:00 3,6 -0,1 - - - 11 6 - - SE 1021,0 23
14.01.2018 05:00:00 3,7 0,0 - - - 14 8 - - SE 1021,1 30
14.01.2018 04:00:00 3,9 -0,1 - - - 14 8 - - SE 1021,3 30
14.01.2018 03:00:00 4,2 0,2 - - - 14 8 - - SE 1021,4 30
14.01.2018 02:00:00 4,6 0,1 - - - 14 8 - - SE 1021,3 30
14.01.2018 01:00:00 4,8 0,1 - - - 14 8 - - SE 1021,6 30
14.01.2018 00:00:00 5,0 0,0 - - - 18 10 - - ESE 1021,9 30
13.01.2018 23:00:00 4,9 -0,1 - - - 14 8 - - ESE 1022,1 30
13.01.2018 22:00:00 5,2 -0,2 - - - 11 6 - - ESE 1022,5 30
13.01.2018 21:00:00 5,2 -0,3 - - - 14 8 - - ESE 1022,6 30
13.01.2018 20:00:00 5,2 -0,4 - - - 22 12 - - ESE 1022,7 30
13.01.2018 19:00:00 5,2 -0,3 - - - 14 8 - - ESE 1023,0 30
13.01.2018 18:00:00 3,8 -0,6 - - - 14 8 - - SSE 1023,4 30
13.01.2018 17:00:00 5,2 -0,5 - - - 11 6 - - SE 1023,5 30
13.01.2018 16:00:00 5,5 0,5 - - - 14 8 - - SE 1023,7 30
13.01.2018 15:00:00 5,6 0,4 5,5 5,6 - 18 10 - - SE 1024,1 30
13.01.2018 14:00:00 5,9 0,6 - - - 18 10 - - SE 1024,7 25
13.01.2018 13:00:00 5,2 0,7 - - - 22 12 - - SSE 1025,5 28
13.01.2018 12:00:00 4,6 0,7 - - - 22 12 - - SSE 1026,1 26
13.01.2018 11:00:00 4,8 1,6 - - - 18 10 - - SSE 1026,1 16
13.01.2018 10:00:00 5,1 1,9 - - - 22 12 - - SSE 1025,8 15
13.01.2018 09:00:00 5,3 3,4 - - - 11 6 - - ESE 1025,5 9
13.01.2018 08:00:00 5,2 3,9 4,6 5,4 7,8 14 8 - - ESE 1025,4 7
13.01.2018 07:00:00 5,0 4,2 - - - 11 6 - - ESE 1025,4 4,7
13.01.2018 06:00:00 4,4 3,7 - - - 4 2 - - SE 1025,6 2,7
13.01.2018 05:00:00 4,5 3,8 - - - 4 2 - - SE 1025,9 2,5
13.01.2018 04:00:00 4,5 3,8 - - - 4 2 - - ESE 1026,3 2,5
13.01.2018 03:00:00 4,1 3,5 - - - 4 2 - - SE 1026,8 2,5
13.01.2018 02:00:00 3,6 2,9 - - - 4 2 - - SE 1026,9 2,5
13.01.2018 01:00:00 4,4 3,5 - - - 4 2 - - ESE 1027,0 4,0
13.01.2018 00:00:00 4,6 3,6 - - - 4 2 - - ESE 1027,3 4,0
12.01.2018 23:00:00 4,3 3,0 - - - 2 1 - - ESE 1027,4 4,0
12.01.2018 22:00:00 4,9 3,6 - - - 4 2 - - SE 1027,4 4,0
12.01.2018 21:00:00 5,1 3,9 - - - 4 2 - - SE 1027,3 5
12.01.2018 20:00:00 4,7 3,9 - - - 4 2 - - N 1027,0 3,5
12.01.2018 19:00:00 4,6 3,7 - - - 2 1 - - SE 1026,9 3,0
12.01.2018 18:00:00 4,8 3,8 - - - 4 2 - - ESE 1027,0 2,5
12.01.2018 17:00:00 4,9 3,8 - - - 4 2 - - ENE 1026,9 2,4
12.01.2018 16:00:00 5,4 4,1 - - - 2 1 - - N 1026,9 2,2
12.01.2018 15:00:00 5,2 4,1 6,3 6,0 - 4 2 - - N 1026,6 2,2
12.01.2018 14:00:00 5,0 4,3 - - - 4 2 - - NW 1026,5 2,2
12.01.2018 13:00:00 4,8 4,3 - - - 4 2 - - W 1026,8 2,6
12.01.2018 12:00:00 4,7 4,2 - - - 7 4 - - WNW 1027,0 2,0
12.01.2018 11:00:00 4,2 3,8 - - - 4 2 - - N 1027,1 1,0
12.01.2018 10:00:00 4,2 3,8 - - - 7 4 - - WNW 1026,4 0,7
12.01.2018 09:00:00 4,0 3,5 - - - 7 4 - - NW 1026,0 1,0
12.01.2018 08:00:00 4,2 3,8 5,1 5,9 7,7 7 4 - - W 1025,5 1,0
12.01.2018 07:00:00 4,4 3,9 - - - 7 4 - - NW 1025,1 1,2
12.01.2018 06:00:00 4,4 3,8 - - - 7 4 - - NW 1024,9 1,2
12.01.2018 05:00:00 4,8 4,2 - - - 8 4 - - WNW 1024,9 2,0
12.01.2018 04:00:00 5,1 4,4 - - - 11 6 - - NW 1024,6 3,0
12.01.2018 03:00:00 5,4 4,8 - - - 11 6 - - NW 1024,1 3,0
12.01.2018 02:00:00 5,5 5,0 - - - 7 4 - - NW 1023,5 3,0
12.01.2018 01:00:00 5,7 5,1 - - - 7 4 - - NW 1023,5 3,0
12.01.2018 00:00:00 5,7 5,1 - - - 11 6 - - WNW 1023,1 4,5
11.01.2018 23:00:00 5,9 5,2 - - - 9 5 - - WNW 1022,7 4,5
11.01.2018 22:00:00 6,0 5,2 - - - 7 4 - - NW 1022,3 4,5
11.01.2018 21:00:00 6,2 5,4 - - - 7 4 - - WNW 1021,7 4,7
11.01.2018 20:00:00 6,3 5,4 - - - 7 4 - - WNW 1020,9 6
11.01.2018 19:00:00 6,6 5,6 - - - 5 3 - - W 1020,5 7
11.01.2018 18:00:00 6,3 5,3 - - - 7 4 - - NW 1019,8 10
11.01.2018 17:00:00 7,1 5,8 - - - 4 2 - - N 1019,1 9
11.01.2018 16:00:00 7,7 5,8 - - - 4 2 - - NW 1018,5 15
11.01.2018 15:00:00 7,7 5,3 7,6 6,1 - 7 4 - - NW 1017,7 15
11.01.2018 14:00:00 7,8 5,2 - - - 0 0 - - N 1017,0 15
11.01.2018 13:00:00 7,3 4,9 - - - 4 2 - - N 1016,9 15
11.01.2018 12:00:00 7,1 5,0 - - - 4 2 - - N 1016,8 13
11.01.2018 11:00:00 6,1 5,2 - - - 4 2 - - N 1016,6 12
11.01.2018 10:00:00 5,6 4,8 - - - 7 4 - - N 1015,8 8
11.01.2018 09:00:00 4,8 4,1 - - - 4 2 - - N 1015,0 9
11.01.2018 08:00:00 5,0 4,1 4,9 5,7 7,6 4 2 - - ESE 1014,3 20
11.01.2018 07:00:00 5,4 4,2 - - - 4 2 - - ESE 1013,6 25
11.01.2018 06:00:00 5,2 4,6 - - - 4 2 - - S 1013,0 30
11.01.2018 05:00:00 4,9 4,2 - - - 4 2 - - N 1012,6 30
11.01.2018 04:00:00 5,0 4,1 - - - 4 2 - - N 1012,4 30
11.01.2018 03:00:00 5,7 4,6 - - - 4 2 - - N 1012,0 30
11.01.2018 02:00:00 4,7 4,0 - - - 7 4 - - SSE 1011,8 30
11.01.2018 01:00:00 6,0 5,0 - - - 7 4 - - SE 1011,5 30
11.01.2018 00:00:00 6,0 5,0 - - - 4 2 - - SSW 1011,6 30
10.01.2018 23:00:00 6,2 4,9 - - - 4 2 - - N 1011,1 30
10.01.2018 22:00:00 6,4 4,7 - - - 7 4 - - N 1011,0 30
10.01.2018 21:00:00 6,9 4,3 - - - 4 2 - - N 1010,5 30
10.01.2018 20:00:00 7,8 3,7 - - - 7 4 - - S 1010,4 25

tt = Température de l'air
td = dewpoint
tt -5cm = Température de l'air -5cm
tt -20cm = Température de l'air -20cm
tt -100cm = Température de l'air -100cm
ff = Vitesse du vent
fx = gusts
dd = Direction du vent
ppp = reduced air pressure
vv = visibility

stations d'obs. à proximité